Вернуться в каталог

COSMOS 1650

GLONASS

АктивенНавигацияMEO
NORAD 15697·PAYLOAD·🇷🇺 Russia

Запущен May 17, 1985 с Baikonur Cosmodrome

Loading…

Ближайшие Пролёты (ближайшие 24 часа)

TLE

СвежийSource: Space-Track

Эпоха: Sep 12, 2026, 03:46 UTC

1 15697U 85037A   26255.15714777  .00000000  00000-0  00000-0 0  9990
2 15697  64.9434  70.3140 0032230  32.2994 325.4790  2.13101896298149

Отслеживайте COSMOS 1650 в реальном времени с AllMySat

Download on the App Store